When you browse on this site, cookies collect data to enhance your experience and personalize the content and advertising you see.
Visit our Privacy Policy to learn more. By continuing to use the site, you agree to this use of cookies and data.
  • In Romania
  • List of Countries
  • For 7 days
  • Water Temperature
  • Satellite Maps
  • Weather Map
  • Weather Widgets
  • user-avatar
    Login

    Hourly Weather Maturín

    Today, 22 May, Wednesday

    Time Temperature Precipitation Wind Pressure Humidity
    00:00 +27°C° 2.3 mm 1 mps 756 mmHg 88%
    01:00 +27°C° 2.3 mm 1 mps 756 mmHg 90%
    02:00 +26°C° 0 mm 1 mps 756 mmHg 92%
    03:00 +26°C° 0.5 mm 1 mps 756 mmHg 93%
    04:00 +26°C° 0.5 mm 1 mps 756 mmHg 94%
    05:00 +24°C° 0.5 mm 0 mps 756 mmHg 95%
    06:00 +27°C° 0 mm 1 mps 756 mmHg 91%
    07:00 +28°C° 0 mm 1 mps 756 mmHg 86%
    08:00 +29°C° 0 mm 1 mps 756 mmHg 82%
    09:00 +30°C° 0.5 mm 2 mps 756 mmHg 75%
    10:00 +31°C° 0.5 mm 2 mps 756 mmHg 68%
    11:00 +34°C° 0.5 mm 2 mps 756 mmHg 62%
    12:00 +35°C° 0.3 mm 2 mps 756 mmHg 59%
    13:00 +35°C° 0.3 mm 2 mps 755 mmHg 56%
    14:00 +36°C° 0.3 mm 3 mps 754 mmHg 54%
    15:00 +35°C° 0.3 mm 3 mps 754 mmHg 57%
    16:00 +34°C° 0.3 mm 3 mps 754 mmHg 60%
    17:00 +33°C° 0.3 mm 3 mps 753 mmHg 64%
    18:00 +31°C° 0.4 mm 3 mps 754 mmHg 71%
    19:00 +29°C° 0.4 mm 2 mps 754 mmHg 78%
    20:00 +28°C° 0.4 mm 2 mps 755 mmHg 85%
    21:00 +28°C° 0.1 mm 2 mps 755 mmHg 87%
    22:00 +27°C° 0.1 mm 2 mps 756 mmHg 88%
    23:00 +27°C° 0.1 mm 2 mps 756 mmHg 90%

    Tomorrow, 23 May, Thursday

    Time Temperature Precipitation Wind Pressure Humidity
    00:00 +27°C° 0 mm 1 mps 756 mmHg 91%
    01:00 +26°C° 0 mm 1 mps 755 mmHg 92%
    02:00 +26°C° 0 mm 1 mps 755 mmHg 93%
    03:00 +26°C° 0 mm 1 mps 755 mmHg 94%
    04:00 +26°C° 0 mm 1 mps 755 mmHg 94%
    05:00 +24°C° 0 mm 0 mps 755 mmHg 94%
    06:00 +27°C° 0 mm 1 mps 755 mmHg 91%
    07:00 +27°C° 0 mm 1 mps 756 mmHg 87%
    08:00 +28°C° 0 mm 1 mps 756 mmHg 84%
    09:00 +30°C° 0.1 mm 1 mps 756 mmHg 75%
    10:00 +31°C° 0.1 mm 1 mps 756 mmHg 66%
    11:00 +33°C° 0.1 mm 1 mps 756 mmHg 58%
    12:00 +34°C° 0.1 mm 1 mps 755 mmHg 56%
    13:00 +34°C° 0.1 mm 1 mps 755 mmHg 53%
    14:00 +35°C° 0.1 mm 1 mps 754 mmHg 51%
    15:00 +34°C° 0.3 mm 2 mps 753 mmHg 57%
    16:00 +32°C° 0.3 mm 2 mps 753 mmHg 63%
    17:00 +31°C° 0.3 mm 3 mps 753 mmHg 69%
    18:00 +30°C° 0 mm 3 mps 753 mmHg 74%
    19:00 +29°C° 0 mm 2 mps 754 mmHg 78%
    20:00 +28°C° 0 mm 2 mps 754 mmHg 82%
    21:00 +27°C° 0 mm 2 mps 755 mmHg 84%
    22:00 +27°C° 0 mm 2 mps 755 mmHg 86%
    23:00 +27°C° 0 mm 2 mps 756 mmHg 88%

    Day after tomorrow, 24 May, Friday

    Time Temperature Precipitation Wind Pressure Humidity
    00:00 +27°C° 0 mm 1 mps 755 mmHg 90%
    01:00 +26°C° 0 mm 1 mps 755 mmHg 92%
    02:00 +26°C° 0 mm 1 mps 755 mmHg 94%
    03:00 +26°C° 0 mm 1 mps 755 mmHg 95%
    04:00 +26°C° 0 mm 1 mps 754 mmHg 95%
    05:00 +26°C° 0 mm 1 mps 754 mmHg 96%
    06:00 +27°C° 0 mm 1 mps 755 mmHg 89%
    07:00 +28°C° 0 mm 1 mps 755 mmHg 83%
    08:00 +29°C° 0 mm 1 mps 756 mmHg 76%
    09:00 +31°C° 0.5 mm 2 mps 756 mmHg 70%
    10:00 +32°C° 0.5 mm 2 mps 756 mmHg 64%
    11:00 +35°C° 0.5 mm 2 mps 756 mmHg 58%
    12:00 +35°C° 1.4 mm 3 mps 755 mmHg 59%
    13:00 +35°C° 1.4 mm 3 mps 754 mmHg 61%
    14:00 +35°C° 1.4 mm 3 mps 754 mmHg 62%
    15:00 +34°C° 0.4 mm 3 mps 754 mmHg 62%
    16:00 +33°C° 0.4 mm 4 mps 753 mmHg 63%
    17:00 +33°C° 0.4 mm 4 mps 753 mmHg 64%
    18:00 +32°C° 0.1 mm 4 mps 754 mmHg 70%
    19:00 +29°C° 0.1 mm 3 mps 754 mmHg 76%
    20:00 +28°C° 0.1 mm 3 mps 755 mmHg 82%
    21:00 +28°C° 0 mm 2 mps 755 mmHg 84%
    22:00 +27°C° 0 mm 2 mps 756 mmHg 86%
    23:00 +27°C° 0 mm 2 mps 756 mmHg 88%

    25 May, Saturday

    Time Temperature Precipitation Wind Pressure Humidity
    00:00 +27°C° 0.9 mm 1 mps 755 mmHg 90%
    01:00 +26°C° 0.9 mm 1 mps 755 mmHg 93%
    02:00 +26°C° 0.9 mm 1 mps 754 mmHg 95%
    03:00 +26°C° 1.1 mm 1 mps 754 mmHg 95%
    04:00 +26°C° 1.1 mm 1 mps 755 mmHg 95%
    05:00 +26°C° 1.1 mm 1 mps 755 mmHg 95%
    06:00 +27°C° 0 mm 1 mps 755 mmHg 91%
    07:00 +27°C° 0 mm 1 mps 756 mmHg 88%
    08:00 +28°C° 0 mm 1 mps 756 mmHg 84%
    09:00 +29°C° 0.1 mm 1 mps 756 mmHg 81%
    10:00 +29°C° 0.1 mm 1 mps 756 mmHg 79%
    11:00 +30°C° 0.1 mm 1 mps 756 mmHg 76%
    12:00 +30°C° 0.1 mm 2 mps 755 mmHg 72%
    13:00 +31°C° 0.1 mm 2 mps 755 mmHg 68%
    14:00 +33°C° 0.1 mm 3 mps 754 mmHg 63%
    15:00 +33°C° 0 mm 3 mps 753 mmHg 62%
    16:00 +33°C° 0 mm 3 mps 753 mmHg 61%
    17:00 +33°C° 0 mm 4 mps 753 mmHg 59%
    18:00 +32°C° 0 mm 4 mps 753 mmHg 66%
    19:00 +29°C° 0 mm 3 mps 754 mmHg 73%
    20:00 +28°C° 0 mm 3 mps 755 mmHg 79%
    21:00 +27°C° 0 mm 2 mps 755 mmHg 83%
    22:00 +27°C° 0 mm 2 mps 756 mmHg 86%
    23:00 +26°C° 0 mm 2 mps 756 mmHg 90%

    26 May, Sunday

    Time Temperature Precipitation Wind Pressure Humidity
    00:00 +26°C° 0 mm 2 mps 756 mmHg 92%
    01:00 +26°C° 0 mm 1 mps 755 mmHg 94%
    02:00 +25°C° 0 mm 1 mps 755 mmHg 96%
    03:00 +25°C° 0 mm 1 mps 755 mmHg 96%
    04:00 +25°C° 0 mm 1 mps 755 mmHg 96%
    05:00 +25°C° 0 mm 1 mps 755 mmHg 96%
    06:00 +26°C° 0.1 mm 1 mps 755 mmHg 90%
    07:00 +28°C° 0.1 mm 1 mps 756 mmHg 84%
    08:00 +29°C° 0.1 mm 2 mps 756 mmHg 77%
    09:00 +30°C° 0.6 mm 2 mps 756 mmHg 73%
    10:00 +31°C° 0.6 mm 2 mps 756 mmHg 69%
    11:00 +34°C° 0.6 mm 2 mps 756 mmHg 64%
    12:00 +33°C° 2.3 mm 3 mps 755 mmHg 67%
    13:00 +33°C° 2.3 mm 3 mps 755 mmHg 69%
    14:00 +33°C° 2.3 mm 3 mps 754 mmHg 72%
    15:00 +33°C° 0.6 mm 3 mps 754 mmHg 71%
    16:00 +33°C° 0.6 mm 3 mps 753 mmHg 69%
    17:00 +31°C° 0.6 mm 3 mps 753 mmHg 68%
    18:00 +30°C° 0 mm 3 mps 754 mmHg 72%
    19:00 +29°C° 0 mm 2 mps 754 mmHg 75%
    20:00 +28°C° 0 mm 2 mps 755 mmHg 79%
    21:00 +28°C° 0 mm 2 mps 755 mmHg 81%
    22:00 +27°C° 0 mm 2 mps 756 mmHg 84%
    23:00 +26°C° 0 mm 2 mps 756 mmHg 87%

    27 May, Monday

    Time Temperature Precipitation Wind Pressure Humidity
    00:00 +26°C° 0 mm 2 mps 755 mmHg 89%
    01:00 +26°C° 0 mm 1 mps 755 mmHg 92%
    02:00 +25°C° 0 mm 1 mps 754 mmHg 95%
    03:00 +25°C° 0 mm 1 mps 755 mmHg 95%
    04:00 +25°C° 0 mm 1 mps 755 mmHg 96%
    05:00 +25°C° 0 mm 1 mps 755 mmHg 97%
    06:00 +26°C° 0.1 mm 1 mps 755 mmHg 91%
    07:00 +27°C° 0.1 mm 2 mps 756 mmHg 84%
    08:00 +28°C° 0.1 mm 2 mps 756 mmHg 78%
    09:00 +30°C° 0.1 mm 2 mps 756 mmHg 70%
    10:00 +32°C° 0.1 mm 2 mps 756 mmHg 62%
    11:00 +34°C° 0.1 mm 2 mps 756 mmHg 54%
    12:00 +35°C° 0 mm 2 mps 755 mmHg 51%
    13:00 +36°C° 0 mm 2 mps 754 mmHg 47%
    14:00 +37°C° 0 mm 2 mps 753 mmHg 44%
    15:00 +36°C° 0 mm 3 mps 753 mmHg 46%
    16:00 +35°C° 0 mm 3 mps 753 mmHg 48%
    17:00 +35°C° 0 mm 3 mps 752 mmHg 51%
    18:00 +33°C° 0 mm 3 mps 753 mmHg 57%
    19:00 +30°C° 0 mm 3 mps 754 mmHg 63%
    20:00 +29°C° 0 mm 2 mps 754 mmHg 70%
    21:00 +28°C° 0 mm 2 mps 755 mmHg 73%
    22:00 +28°C° 0 mm 2 mps 755 mmHg 77%
    23:00 +27°C° 0 mm 2 mps 755 mmHg 80%
    Show more